| time (UTC) | temp F | wind direction | speed MPH | gust MPH | rain 1hr in | rain 24hr in | rain mn in | humidity % | barometer mb |
| 20260831154037 | 69 | 291 | 13.0 | 23.0 | 0.00 | 0.39 | 0.39 | 60 | 1019.4 |
| 20260831153537 | 69 | 288 | 10.0 | 24.0 | 0.00 | 0.39 | 0.39 | 61 | 1019.2 |
| 20260831153037 | 69 | 276 | 13.0 | 24.0 | 0.00 | 0.39 | 0.39 | 62 | 1019.3 |
| 20260831152536 | 69 | 314 | 9.0 | 20.0 | 0.00 | 0.39 | 0.39 | 63 | 1019.5 |
| 20260831152037 | 69 | 314 | 11.0 | 17.0 | 0.00 | 0.39 | 0.39 | 63 | 1019.5 |
| 20260831151537 | 69 | 304 | 9.0 | 20.0 | 0.00 | 0.39 | 0.39 | 62 | 1019.6 |
| 20260831151137 | 70 | 324 | 11.0 | 21.0 | 0.00 | 0.39 | 0.39 | 62 | 1019.5 |
| 20260831150536 | 70 | 286 | 11.0 | 21.0 | 0.00 | 0.39 | 0.39 | 62 | 1019.5 |
| 20260831150043 | 70 | 309 | 10.0 | 17.0 | 0.00 | 0.39 | 0.39 | 61 | 1019.7 |
| 20260831145535 | 70 | 304 | 9.0 | 16.0 | 0.00 | 0.39 | 0.39 | 61 | 1019.7 |
| 20260831145038 | 70 | 325 | 8.0 | 18.0 | 0.00 | 0.39 | 0.39 | 62 | 1019.6 |
| 20260831144537 | 71 | 314 | 10.0 | 19.0 | 0.00 | 0.39 | 0.39 | 63 | 1019.7 |
| 20260831144034 | 71 | 279 | 9.0 | 19.0 | 0.00 | 0.39 | 0.39 | 64 | 1019.6 |
| 20260831143534 | 70 | 314 | 13.0 | 19.0 | 0.00 | 0.39 | 0.39 | 63 | 1019.5 |
| 20260831143038 | 71 | 338 | 10.0 | 16.0 | 0.00 | 0.39 | 0.39 | 64 | 1019.5 |
| 20260831142534 | 71 | 298 | 11.0 | 20.0 | 0.00 | 0.39 | 0.39 | 63 | 1019.3 |
| 20260831142037 | 71 | 297 | 10.0 | 20.0 | 0.00 | 0.39 | 0.39 | 63 | 1019.4 |
| 20260831141534 | 71 | 266 | 15.0 | 20.0 | 0.00 | 0.39 | 0.39 | 63 | 1019.4 |
| 20260831141033 | 71 | 291 | 11.0 | 20.0 | 0.00 | 0.39 | 0.39 | 64 | 1019.4 |
| 20260831140534 | 71 | 331 | 10.0 | 22.0 | 0.00 | 0.39 | 0.39 | 65 | 1019.4 |
| 20260831140033 | 71 | 318 | 8.0 | 22.0 | 0.00 | 0.39 | 0.39 | 64 | 1019.3 |
| 20260831135533 | 71 | 314 | 14.0 | 23.0 | 0.00 | 0.39 | 0.39 | 63 | 1019.2 |
| 20260831135036 | 71 | 314 | 14.0 | 23.0 | 0.00 | 0.39 | 0.39 | 62 | 1019.3 |
| 20260831134533 | 71 | 320 | 13.0 | 25.0 | 0.00 | 0.39 | 0.39 | 63 | 1019.3 |
| 20260831134032 | 72 | 304 | 13.0 | 23.0 | 0.00 | 0.39 | 0.39 | 64 | 1019.2 |
| 20260831133534 | 72 | 271 | 12.0 | 22.0 | 0.00 | 0.39 | 0.39 | 63 | 1019.1 |
| 20260831133031 | 72 | 294 | 11.0 | 22.0 | 0.00 | 0.39 | 0.39 | 63 | 1019.2 |
| 20260831132531 | 73 | 309 | 9.0 | 19.0 | 0.00 | 0.39 | 0.39 | 64 | 1019.1 |
| 20260831132031 | 73 | 291 | 10.0 | 19.0 | 0.00 | 0.39 | 0.39 | 64 | 1019.1 |
| 20260831131531 | 73 | 314 | 11.0 | 19.0 | 0.00 | 0.39 | 0.39 | 63 | 1019.1 |
| 20260831131032 | 73 | 304 | 8.0 | 15.0 | 0.00 | 0.39 | 0.39 | 64 | 1019.0 |
| 20260831130530 | 73 | 270 | 7.0 | 15.0 | 0.00 | 0.39 | 0.39 | 63 | 1019.1 |
| 20260831130030 | 73 | 324 | 8.0 | 15.0 | 0.00 | 0.39 | 0.39 | 63 | 1019.2 |
| 20260831125530 | 73 | 283 | 6.0 | 12.0 | 0.00 | 0.39 | 0.39 | 64 | 1019.3 |
| 20260831125028 | 73 | 287 | 6.0 | 12.0 | 0.00 | 0.39 | 0.39 | 64 | 1019.2 |
| 20260831124529 | 73 | 314 | 7.0 | 13.0 | 0.00 | 0.39 | 0.39 | 64 | 1019.2 |
| 20260831124031 | 73 | 314 | 7.0 | 13.0 | 0.00 | 0.39 | 0.39 | 65 | 1019.3 |
| 20260831123528 | 73 | 309 | 6.0 | 14.0 | 0.00 | 0.39 | 0.39 | 65 | 1019.3 |
| 20260831123028 | 73 | 309 | 8.0 | 14.0 | 0.00 | 0.39 | 0.39 | 63 | 1019.3 |
| 20260831122528 | 73 | 309 | 7.0 | 11.0 | 0.00 | 0.39 | 0.39 | 66 | 1019.3 |
| 20260831122027 | 73 | 304 | 4.0 | 11.0 | 0.00 | 0.39 | 0.39 | 66 | 1019.3 |
| 20260831121526 | 73 | 304 | 4.0 | 10.0 | 0.00 | 0.39 | 0.39 | 67 | 1019.3 |
| 20260831121027 | 73 | 304 | 5.0 | 10.0 | 0.00 | 0.39 | 0.39 | 66 | 1019.3 |
| 20260831120525 | 73 | 297 | 4.0 | 10.0 | 0.00 | 0.39 | 0.39 | 67 | 1019.3 |
| 20260831120034 | 73 | 291 | 5.0 | 12.0 | 0.00 | 0.39 | 0.39 | 65 | 1019.3 |
| 20260831115521 | 73 | 289 | 6.0 | 12.0 | 0.00 | 0.39 | 0.39 | 66 | 1019.4 |
| 20260831115021 | 73 | 299 | 5.0 | 10.0 | 0.00 | 0.39 | 0.39 | 67 | 1019.4 |
| 20260831114530 | 73 | 287 | 6.0 | 11.0 | 0.00 | 0.39 | 0.39 | 65 | 1019.4 |
| 20260831114020 | 73 | 291 | 6.0 | 11.0 | 0.00 | 0.39 | 0.39 | 67 | 1019.5 |
| 20260831113520 | 73 | 309 | 4.0 | 9.0 | 0.00 | 0.39 | 0.39 | 70 | 1019.5 |
| 20260831113019 | 72 | 281 | 5.0 | 9.0 | 0.00 | 0.39 | 0.39 | 68 | 1019.6 |
| 20260831112519 | 72 | 304 | 3.0 | 10.0 | 0.00 | 0.39 | 0.39 | 68 | 1019.6 |
| 20260831112018 | 72 | 298 | 5.0 | 10.0 | 0.00 | 0.39 | 0.39 | 69 | 1019.7 |
| 20260831111518 | 72 | 285 | 4.0 | 8.0 | 0.00 | 0.39 | 0.39 | 69 | 1019.7 |
| 20260831111017 | 72 | 292 | 3.0 | 6.0 | 0.00 | 0.39 | 0.39 | 70 | 1019.8 |
| 20260831110520 | 72 | 304 | 3.0 | 6.0 | 0.00 | 0.39 | 0.39 | 72 | 1019.7 |
| 20260831110016 | 72 | 309 | 3.0 | 8.0 | 0.00 | 0.39 | 0.39 | 72 | 1019.8 |
| 20260831105515 | 72 | 304 | 3.0 | 5.0 | 0.00 | 0.39 | 0.39 | 71 | 1019.8 |
| 20260831105015 | 72 | 314 | 1.0 | 5.0 | 0.00 | 0.39 | 0.39 | 72 | 1019.8 |
| 20260831104516 | 72 | 292 | 3.0 | 5.0 | 0.00 | 0.39 | 0.39 | 72 | 1019.8 |
| 20260831104014 | 71 | 282 | 1.0 | 4.0 | 0.00 | 0.39 | 0.39 | 72 | 1019.9 |
| 20260831103516 | 71 | 297 | 2.0 | 6.0 | 0.00 | 0.39 | 0.39 | 73 | 1020.0 |
| 20260831103012 | 70 | 304 | 1.0 | 6.0 | 0.00 | 0.39 | 0.39 | 74 | 1020.0 |
| 20260831102510 | 70 | 278 | 2.0 | 10.0 | 0.00 | 0.39 | 0.39 | 78 | 1020.1 |
| 20260831102010 | 70 | 309 | 3.0 | 10.0 | 0.00 | 0.39 | 0.39 | 78 | 1020.1 |
| 20260831101509 | 70 | 304 | 2.0 | 8.0 | 0.00 | 0.39 | 0.39 | 77 | 1020.2 |
| 20260831101009 | 69 | 335 | 1.0 | 4.0 | 0.00 | 0.39 | 0.39 | 83 | 1020.2 |
| 20260831100508 | 69 | 7 | 2.0 | 4.0 | 0.00 | 0.39 | 0.39 | 79 | 1020.3 |
| 20260831100008 | 70 | 1 | 1.0 | 3.0 | 0.00 | 0.39 | 0.39 | 81 | 1020.3 |
| 20260831095507 | 70 | 293 | 0.0 | 2.0 | 0.00 | 0.39 | 0.39 | 81 | 1020.4 |
| 20260831095006 | 69 | 293 | 0.0 | 2.0 | 0.00 | 0.39 | 0.39 | 82 | 1020.4 |
| 20260831094608 | 69 | 290 | 0.0 | 2.0 | 0.00 | 0.39 | 0.39 | 80 | 1020.4 |
| 20260831094004 | 69 | 287 | 0.0 | 0.0 | 0.00 | 0.39 | 0.39 | 87 | 1020.5 |
| 20260831093504 | 68 | 286 | 0.0 | 0.0 | 0.00 | 0.39 | 0.39 | 88 | 1020.6 |
| 20260831093101 | 67 | 287 | 0.0 | 0.0 | 0.00 | 0.39 | 0.39 | 86 | 1020.7 |
| 20260831092600 | 67 | 286 | 0.0 | 2.0 | 0.00 | 0.39 | 0.39 | 89 | 1020.8 |
| 20260831092057 | 66 | 286 | 0.0 | 2.0 | 0.00 | 0.39 | 0.39 | 89 | 1020.8 |
| 20260831091601 | 65 | 287 | 0.0 | 0.0 | 0.00 | 0.39 | 0.39 | 88 | 1020.8 |
| 20260831091057 | 65 | 298 | 0.0 | 3.0 | 0.00 | 0.39 | 0.39 | 91 | 1020.9 |
| 20260831090556 | 64 | 298 | 0.0 | 4.0 | 0.00 | 0.39 | 0.39 | 92 | 1020.8 |
| 20260831090055 | 64 | 298 | 2.0 | 4.0 | 0.00 | 0.39 | 0.39 | 92 | 1020.9 |
| 20260831085555 | 64 | 298 | 2.0 | 4.0 | 0.00 | 0.39 | 0.39 | 92 | 1020.9 |
| 20260831085056 | 64 | 298 | 0.0 | 2.0 | 0.00 | 0.39 | 0.39 | 91 | 1020.9 |
| 20260831084605 | 64 | 298 | 0.0 | 0.0 | 0.00 | 0.39 | 0.39 | 92 | 1020.9 |
| 20260831084054 | 64 | 296 | 0.0 | 0.0 | 0.00 | 0.39 | 0.39 | 92 | 1020.9 |
| 20260831083553 | 64 | 296 | 0.0 | 0.0 | 0.00 | 0.39 | 0.39 | 92 | 1020.9 |
| 20260831083104 | 64 | 296 | 0.0 | 0.0 | 0.00 | 0.39 | 0.39 | 91 | 1020.9 |
| 20260831082553 | 64 | 151 | 0.0 | 0.0 | 0.00 | 0.39 | 0.39 | 92 | 1020.9 |
| 20260831082052 | 64 | 145 | 0.0 | 0.0 | 0.00 | 0.39 | 0.39 | 92 | 1020.9 |
| 20260831081552 | 64 | 145 | 0.0 | 0.0 | 0.00 | 0.39 | 0.39 | 92 | 1020.9 |
| 20260831081052 | 63 | 145 | 0.0 | 0.0 | 0.00 | 0.39 | 0.39 | 92 | 1020.9 |
| 20260831080551 | 63 | 145 | 0.0 | 0.0 | 0.00 | 0.39 | 0.39 | 92 | 1020.8 |
| 20260831080051 | 63 | 145 | 0.0 | 0.0 | 0.00 | 0.39 | 0.39 | 92 | 1020.7 |
| 20260831075551 | 63 | 145 | 0.0 | 0.0 | 0.00 | 0.39 | 0.39 | 93 | 1020.7 |
| 20260831075051 | 63 | 145 | 0.0 | 0.0 | 0.00 | 0.39 | 0.39 | 93 | 1020.7 |
| 20260831074550 | 63 | 145 | 0.0 | 0.0 | 0.00 | 0.39 | 0.39 | 94 | 1020.7 |
| 20260831074049 | 63 | 145 | 0.0 | 0.0 | 0.00 | 0.39 | 0.39 | 94 | 1020.7 |
| 20260831073549 | 63 | 145 | 0.0 | 0.0 | 0.00 | 0.39 | 0.39 | 94 | 1020.7 |
| 20260831073048 | 63 | 145 | 0.0 | 0.0 | 0.00 | 0.39 | 0.39 | 93 | 1020.7 |
| 20260831072548 | 63 | 145 | 0.0 | 0.0 | 0.00 | 0.39 | 0.39 | 93 | 1020.7 |
| 20260831072047 | 63 | 145 | 0.0 | 0.0 | 0.00 | 0.39 | 0.39 | 93 | 1020.7 |
| 20260831071547 | 63 | 145 | 0.0 | 0.0 | 0.00 | 0.39 | 0.39 | 93 | 1020.7 |
| 20260831071047 | 63 | 145 | 0.0 | 0.0 | 0.00 | 0.39 | 0.39 | 93 | 1020.7 |
| 20260831070547 | 63 | 145 | 0.0 | 0.0 | 0.00 | 0.39 | 0.39 | 93 | 1020.7 |
| 20260831070047 | 63 | 145 | 0.0 | 0.0 | 0.00 | 0.39 | 0.39 | 91 | 1020.6 |
| 20260831065547 | 63 | 145 | 0.0 | 0.0 | 0.00 | 0.39 | 0.39 | 92 | 1020.7 |
| 20260831065049 | 63 | 145 | 0.0 | 0.0 | 0.00 | 0.39 | 0.39 | 92 | 1020.5 |
| 20260831064547 | 63 | 145 | 0.0 | 0.0 | 0.00 | 0.39 | 0.39 | 92 | 1020.6 |
| 20260831064047 | 63 | 145 | 0.0 | 0.0 | 0.00 | 0.39 | 0.39 | 92 | 1020.7 |
| 20260831063545 | 63 | 145 | 0.0 | 0.0 | 0.00 | 0.39 | 0.39 | 92 | 1020.7 |
| 20260831063045 | 64 | 145 | 0.0 | 0.0 | 0.00 | 0.39 | 0.39 | 91 | 1020.6 |
| 20260831062545 | 64 | 145 | 0.0 | 0.0 | 0.00 | 0.39 | 0.39 | 92 | 1020.6 |
| 20260831062044 | 64 | 145 | 0.0 | 0.0 | 0.00 | 0.39 | 0.39 | 92 | 1020.5 |
| 20260831061544 | 64 | 145 | 0.0 | 0.0 | 0.00 | 0.39 | 0.39 | 91 | 1020.6 |
| 20260831061043 | 63 | 145 | 0.0 | 0.0 | 0.00 | 0.39 | 0.39 | 94 | 1020.6 |
| 20260831060541 | 63 | 145 | 0.0 | 3.0 | 0.00 | 0.39 | 0.39 | 94 | 1020.5 |
| 20260831060046 | 62 | 145 | 0.0 | 3.0 | 0.00 | 0.39 | 0.39 | 95 | 1020.6 |
| 20260831055540 | 62 | 162 | 0.0 | 0.0 | 0.00 | 0.39 | 0.39 | 95 | 1020.5 |
| 20260831055040 | 62 | 162 | 0.0 | 0.0 | 0.00 | 0.39 | 0.39 | 95 | 1020.4 |
| 20260831054539 | 61 | 162 | 0.0 | 0.0 | 0.00 | 0.39 | 0.39 | 95 | 1020.4 |
| 20260831054039 | 61 | 162 | 0.0 | 0.0 | 0.00 | 0.39 | 0.39 | 95 | 1020.4 |
| 20260831053540 | 61 | 162 | 0.0 | 0.0 | 0.00 | 0.39 | 0.39 | 94 | 1020.4 |
| 20260831053037 | 61 | 162 | 0.0 | 0.0 | 0.00 | 0.39 | 0.39 | 95 | 1020.3 |
| 20260831052536 | 61 | 162 | 0.0 | 3.0 | 0.00 | 0.39 | 0.39 | 95 | 1020.3 |
| 20260831052035 | 61 | 162 | 1.0 | 3.0 | 0.00 | 0.39 | 0.39 | 95 | 1020.1 |
| 20260831051537 | 61 | 140 | 0.0 | 2.0 | 0.00 | 0.39 | 0.39 | 95 | 1020.0 |
| 20260831051035 | 61 | 140 | 0.0 | 2.0 | 0.00 | 0.39 | 0.39 | 95 | 1020.0 |
| 20260831050634 | 61 | 140 | 0.0 | 2.0 | 0.00 | 0.39 | 0.39 | 95 | 1020.1 |
| 20260831050033 | 61 | 140 | 0.0 | 0.0 | 0.01 | 0.39 | 0.39 | 95 | 1020.1 |
| 20260831045535 | 61 | 140 | 0.0 | 0.0 | 0.03 | 0.39 | 0.39 | 95 | 1020.1 |
| 20260831045032 | 61 | 140 | 0.0 | 0.0 | 0.05 | 0.39 | 0.39 | 95 | 1020.0 |
| 20260831044532 | 61 | 140 | 0.0 | 0.0 | 0.05 | 0.39 | 0.39 | 95 | 1020.0 |
| 20260831044037 | 61 | 140 | 0.0 | 0.0 | 0.06 | 0.39 | 0.39 | 95 | 1020.0 |
| 20260831043531 | 61 | 140 | 0.0 | 0.0 | 0.06 | 0.39 | 0.39 | 95 | 1020.0 |
| 20260831043030 | 61 | 140 | 0.0 | 0.0 | 0.06 | 0.39 | 0.39 | 95 | 1020.1 |
| 20260831042530 | 61 | 140 | 0.0 | 4.0 | 0.06 | 0.39 | 0.39 | 95 | 1020.2 |
| 20260831042029 | 61 | 139 | 0.0 | 8.0 | 0.06 | 0.39 | 0.39 | 95 | 1020.4 |
| 20260831041529 | 61 | 144 | 3.0 | 10.0 | 0.06 | 0.39 | 0.39 | 95 | 1020.3 |
| 20260831041029 | 61 | 156 | 5.0 | 10.0 | 0.07 | 0.39 | 0.39 | 94 | 1020.6 |
| 20260831040529 | 61 | 251 | 0.0 | 5.0 | 0.09 | 0.39 | 0.39 | 95 | 1020.7 |
| 20260831040032 | 61 | 291 | 3.0 | 6.0 | 0.09 | 0.38 | 0.38 | 94 | 1020.6 |
| 20260831035528 | 61 | 280 | 2.0 | 11.0 | 0.08 | 0.36 | 0.36 | 94 | 1020.5 |
| 20260831035028 | 61 | 261 | 7.0 | 11.0 | 0.09 | 0.35 | 0.35 | 95 | 1020.6 |
| 20260831034528 | 61 | 282 | 0.0 | 0.0 | 0.12 | 0.35 | 0.35 | 95 | 1020.1 |
| 20260831034027 | 61 | 282 | 0.0 | 4.0 | 0.11 | 0.34 | 0.34 | 95 | 1019.8 |
| 20260831033526 | 61 | 282 | 0.0 | 4.0 | 0.11 | 0.34 | 0.34 | 95 | 1020.1 |
| 20260831033033 | 61 | 318 | 1.0 | 3.0 | 0.11 | 0.34 | 0.34 | 96 | 1020.1 |
| 20260831032526 | 61 | 318 | 0.0 | 0.0 | 0.11 | 0.34 | 0.34 | 95 | 1020.1 |
| 20260831032026 | 61 | 318 | 0.0 | 2.0 | 0.11 | 0.34 | 0.34 | 95 | 1019.9 |
| 20260831031525 | 61 | 174 | 0.0 | 4.0 | 0.10 | 0.33 | 0.33 | 95 | 1020.0 |
| 20260831031025 | 61 | 150 | 0.0 | 4.0 | 0.09 | 0.32 | 0.32 | 95 | 1020.1 |
| 20260831030525 | 61 | 209 | 1.0 | 3.0 | 0.07 | 0.30 | 0.30 | 95 | 1020.0 |
| 20260831030026 | 61 | 282 | 0.0 | 6.0 | 0.06 | 0.28 | 0.28 | 95 | 1019.8 |
| 20260831025525 | 61 | 297 | 1.0 | 4.0 | 0.06 | 0.28 | 0.28 | 95 | 1019.9 |
| 20260831025025 | 61 | 288 | 2.0 | 4.0 | 0.02 | 0.24 | 0.24 | 95 | 1019.4 |
| 20260831024525 | 61 | 162 | 0.0 | 0.0 | 0.00 | 0.23 | 0.23 | 95 | 1019.1 |
| 20260831024024 | 61 | 162 | 0.0 | 0.0 | 0.00 | 0.23 | 0.23 | 95 | 1019.0 |
| 20260831023523 | 61 | 162 | 0.0 | 0.0 | 0.00 | 0.23 | 0.23 | 95 | 1019.0 |
| 20260831023026 | 61 | 162 | 0.0 | 0.0 | 0.01 | 0.23 | 0.23 | 95 | 1019.0 |
| 20260831022524 | 61 | 162 | 0.0 | 0.0 | 0.02 | 0.23 | 0.23 | 95 | 1019.1 |
| 20260831022024 | 61 | 162 | 0.0 | 0.0 | 0.04 | 0.23 | 0.23 | 95 | 1019.0 |
| 20260831021523 | 61 | 162 | 0.0 | 0.0 | 0.04 | 0.23 | 0.23 | 94 | 1019.0 |
| 20260831021023 | 61 | 162 | 0.0 | 0.0 | 0.04 | 0.23 | 0.23 | 94 | 1018.9 |
| 20260831020522 | 61 | 162 | 0.0 | 2.0 | 0.04 | 0.23 | 0.23 | 94 | 1018.9 |
| 20260831020023 | 61 | 162 | 0.0 | 2.0 | 0.04 | 0.23 | 0.23 | 94 | 1019.0 |
| 20260831015522 | 61 | 162 | 0.0 | 0.0 | 0.04 | 0.23 | 0.23 | 94 | 1019.0 |
| 20260831015022 | 61 | 162 | 0.0 | 0.0 | 0.04 | 0.23 | 0.23 | 94 | 1019.0 |
| 20260831014522 | 61 | 162 | 0.0 | 0.0 | 0.04 | 0.23 | 0.23 | 94 | 1018.9 |
| 20260831014022 | 61 | 162 | 0.0 | 0.0 | 0.04 | 0.23 | 0.23 | 94 | 1018.8 |
| 20260831013525 | 61 | 162 | 0.0 | 0.0 | 0.04 | 0.23 | 0.23 | 94 | 1018.7 |
| 20260831013021 | 62 | 162 | 0.0 | 3.0 | 0.03 | 0.22 | 0.22 | 94 | 1018.9 |
| 20260831012521 | 61 | 162 | 1.0 | 5.0 | 0.02 | 0.20 | 0.20 | 93 | 1018.9 |
| 20260831012019 | 61 | 161 | 3.0 | 5.0 | 0.00 | 0.19 | 0.19 | 94 | 1019.0 |
| 20260831011518 | 61 | 172 | 1.0 | 3.0 | 0.00 | 0.19 | 0.19 | 94 | 1019.3 |
| 20260831011017 | 61 | 176 | 2.0 | 3.0 | 0.00 | 0.19 | 0.19 | 94 | 1019.4 |
| 20260831010516 | 61 | 177 | 1.0 | 3.0 | 0.00 | 0.19 | 0.19 | 94 | 1019.5 |
| 20260831010017 | 61 | 177 | 1.0 | 3.0 | 0.00 | 0.19 | 0.19 | 94 | 1019.5 |
| 20260831005516 | 62 | 177 | 1.0 | 3.0 | 0.00 | 0.19 | 0.19 | 94 | 1019.5 |
| 20260831005019 | 62 | 224 | 0.0 | 3.0 | 0.01 | 0.19 | 0.19 | 93 | 1019.6 |
| 20260831004516 | 62 | 282 | 0.0 | 4.0 | 0.01 | 0.19 | 0.19 | 93 | 1019.6 |
| 20260831004019 | 62 | 289 | 0.0 | 4.0 | 0.01 | 0.19 | 0.19 | 93 | 1019.6 |
| 20260831003518 | 62 | 174 | 0.0 | 2.0 | 0.01 | 0.19 | 0.19 | 92 | 1019.6 |
| 20260831003014 | 62 | 174 | 0.0 | 2.0 | 0.01 | 0.19 | 0.19 | 93 | 1019.5 |
| 20260831002514 | 62 | 174 | 0.0 | 2.0 | 0.01 | 0.19 | 0.19 | 93 | 1019.5 |
| 20260831002014 | 62 | 174 | 0.0 | 5.0 | 0.01 | 0.19 | 0.19 | 93 | 1019.5 |
| 20260831001514 | 62 | 174 | 1.0 | 5.0 | 0.01 | 0.19 | 0.19 | 93 | 1019.6 |
| 20260831001013 | 62 | 161 | 1.0 | 4.0 | 0.01 | 0.19 | 0.19 | 93 | 1019.7 |
| 20260831000613 | 62 | 96 | 0.0 | 0.0 | 0.01 | 0.19 | 0.19 | 92 | 1019.7 |
| 20260831000013 | 62 | 96 | 0.0 | 0.0 | 0.02 | 0.19 | 0.19 | 92 | 1019.7 |
| 20260830235513 | 62 | 95 | 0.0 | 0.0 | 0.13 | 0.19 | 0.19 | 92 | 1019.6 |
| 20260830235012 | 62 | 95 | 0.0 | 0.0 | 0.17 | 0.18 | 0.18 | 92 | 1019.6 |
| 20260830234513 | 62 | 95 | 0.0 | 0.0 | 0.18 | 0.18 | 0.18 | 92 | 1019.6 |
| 20260830234011 | 62 | 95 | 0.0 | 0.0 | 0.18 | 0.18 | 0.18 | 93 | 1019.6 |
| 20260830233509 | 62 | 95 | 0.0 | 2.0 | 0.18 | 0.18 | 0.18 | 92 | 1019.8 |
| 20260830233009 | 62 | 95 | 0.0 | 2.0 | 0.18 | 0.18 | 0.18 | 92 | 1020.0 |
| 20260830232508 | 62 | 95 | 0.0 | 0.0 | 0.18 | 0.18 | 0.18 | 91 | 1020.0 |
| 20260830232008 | 63 | 95 | 0.0 | 3.0 | 0.18 | 0.18 | 0.18 | 90 | 1019.9 |
| 20260830231507 | 63 | 180 | 0.0 | 3.0 | 0.18 | 0.18 | 0.18 | 89 | 1019.9 |
| 20260830231005 | 63 | 182 | 2.0 | 5.0 | 0.18 | 0.18 | 0.18 | 88 | 1020.0 |
| 20260830230504 | 64 | 253 | 0.0 | 8.0 | 0.18 | 0.18 | 0.18 | 85 | 1020.0 |
| 20260830230006 | 65 | 275 | 4.0 | 8.0 | 0.15 | 0.15 | 0.15 | 83 | 1020.1 |
| 20260830225502 | 66 | 166 | 0.0 | 8.0 | 0.05 | 0.05 | 0.05 | 82 | 1020.3 |
| 20260830225001 | 66 | 230 | 2.0 | 11.0 | 0.00 | 0.00 | 0.00 | 80 | 1020.2 |
| 20260830224600 | 66 | 292 | 4.0 | 12.0 | 0.00 | 0.00 | 0.00 | 80 | 1020.1 |
| 20260830224058 | 65 | 255 | 4.0 | 12.0 | 0.00 | 0.00 | 0.00 | 80 | 1020.2 |
| 20260830223602 | 65 | 277 | 1.0 | 4.0 | 0.00 | 0.00 | 0.00 | 80 | 1020.0 |
| 20260830223058 | 65 | 304 | 0.0 | 1.0 | 0.00 | 0.00 | 0.00 | 80 | 1019.9 |
| 20260830222558 | 65 | 304 | 0.0 | 1.0 | 0.00 | 0.00 | 0.00 | 81 | 1019.9 |
| 20260830222058 | 65 | 304 | 0.0 | 3.0 | 0.00 | 0.00 | 0.00 | 81 | 1020.0 |
| 20260830221557 | 65 | 304 | 0.0 | 4.0 | 0.00 | 0.00 | 0.00 | 81 | 1020.0 |
| 20260830221057 | 64 | 304 | 2.0 | 4.0 | 0.00 | 0.00 | 0.00 | 82 | 1019.9 |
| 20260830220553 | 65 | 304 | 0.0 | 0.0 | 0.00 | 0.00 | 0.00 | 82 | 1019.8 |
| 20260830220057 | 65 | 304 | 0.0 | 0.0 | 0.00 | 0.00 | 0.00 | 82 | 1019.8 |
| 20260830215555 | 65 | 304 | 0.0 | 0.0 | 0.00 | 0.00 | 0.00 | 82 | 1019.7 |
| 20260830215053 | 65 | 304 | 0.0 | 0.0 | 0.00 | 0.00 | 0.00 | 80 | 1019.7 |
| 20260830214613 | 65 | 304 | 0.0 | 0.0 | 0.00 | 0.00 | 0.00 | 80 | 1019.7 |
| 20260830214052 | 65 | 304 | 0.0 | 0.0 | 0.00 | 0.00 | 0.00 | 81 | 1019.8 |
| 20260830213551 | 65 | 304 | 0.0 | 0.0 | 0.00 | 0.00 | 0.00 | 81 | 1019.8 |
| 20260830213051 | 65 | 304 | 0.0 | 0.0 | 0.00 | 0.00 | 0.00 | 81 | 1019.6 |
| 20260830212551 | 65 | 304 | 0.0 | 0.0 | 0.00 | 0.00 | 0.00 | 81 | 1019.6 |
| 20260830212051 | 65 | 304 | 0.0 | 0.0 | 0.00 | 0.00 | 0.00 | 81 | 1019.7 |
| 20260830211555 | 65 | 304 | 0.0 | 0.0 | 0.00 | 0.00 | 0.00 | 80 | 1019.6 |
| 20260830211050 | 65 | 304 | 0.0 | 0.0 | 0.00 | 0.00 | 0.00 | 80 | 1019.4 |
| 20260830210551 | 65 | 304 | 0.0 | 0.0 | 0.00 | 0.00 | 0.00 | 80 | 1019.3 |
| 20260830210052 | 65 | 304 | 0.0 | 0.0 | 0.00 | 0.00 | 0.00 | 81 | 1019.3 |
| 20260830205550 | 65 | 304 | 0.0 | 0.0 | 0.00 | 0.00 | 0.00 | 81 | 1019.3 |
| 20260830205050 | 66 | 304 | 0.0 | 0.0 | 0.00 | 0.00 | 0.00 | 81 | 1019.4 |
| 20260830204550 | 66 | 304 | 0.0 | 0.0 | 0.00 | 0.00 | 0.00 | 81 | 1019.3 |
| 20260830204053 | 66 | 304 | 0.0 | 0.0 | 0.00 | 0.00 | 0.00 | 80 | 1019.4 |
| 20260830203554 | 66 | 304 | 0.0 | 0.0 | 0.00 | 0.00 | 0.00 | 78 | 1019.4 |
| 20260830203052 | 66 | 304 | 0.0 | 0.0 | 0.00 | 0.00 | 0.00 | 78 | 1019.5 |
| 20260830202552 | 66 | 304 | 0.0 | 0.0 | 0.00 | 0.00 | 0.00 | 77 | 1019.4 |
| 20260830202048 | 66 | 304 | 0.0 | 0.0 | 0.00 | 0.00 | 0.00 | 76 | 1019.4 |
| 20260830201549 | 67 | 304 | 0.0 | 0.0 | 0.00 | 0.00 | 0.00 | 74 | 1019.5 |
| 20260830201049 | 67 | 304 | 0.0 | 0.0 | 0.00 | 0.00 | 0.00 | 73 | 1019.4 |
| 20260830200548 | 67 | 304 | 0.0 | 0.0 | 0.00 | 0.00 | 0.00 | 73 | 1019.4 |
| 20260830200059 | 67 | 304 | 0.0 | 0.0 | 0.00 | 0.00 | 0.00 | 74 | 1019.4 |
| 20260830195550 | 67 | 304 | 0.0 | 0.0 | 0.00 | 0.00 | 0.00 | 74 | 1019.3 |
| 20260830195048 | 67 | 304 | 0.0 | 0.0 | 0.00 | 0.00 | 0.00 | 74 | 1019.3 |
| 20260830194555 | 67 | 304 | 0.0 | 0.0 | 0.00 | 0.00 | 0.00 | 75 | 1019.3 |
| 20260830194049 | 67 | 304 | 0.0 | 0.0 | 0.00 | 0.00 | 0.00 | 76 | 1019.4 |
| 20260830193547 | 67 | 304 | 0.0 | 0.0 | 0.00 | 0.00 | 0.00 | 76 | 1019.5 |
| 20260830193119 | 67 | 173 | 0.0 | 0.0 | 0.00 | 0.00 | 0.00 | 72 | 1019.4 |
| 20260830192547 | 68 | 173 | 0.0 | 2.0 | 0.00 | 0.00 | 0.00 | 73 | 1019.3 |
| 20260830192047 | 68 | 173 | 0.0 | 5.0 | 0.00 | 0.00 | 0.00 | 72 | 1019.2 |
| 20260830191547 | 68 | 156 | 0.0 | 7.0 | 0.00 | 0.00 | 0.00 | 72 | 1019.2 |
| 20260830191049 | 69 | 281 | 2.0 | 7.0 | 0.00 | 0.00 | 0.00 | 72 | 1019.1 |
| 20260830190547 | 70 | 230 | 2.0 | 10.0 | 0.00 | 0.00 | 0.00 | 69 | 1019.1 |
| 20260830190047 | 71 | 260 | 4.0 | 10.0 | 0.00 | 0.00 | 0.00 | 67 | 1019.1 |
| 20260830185548 | 72 | 276 | 5.0 | 10.0 | 0.00 | 0.00 | 0.00 | 62 | 1019.1 |
| 20260830185047 | 72 | 274 | 4.0 | 8.0 | 0.00 | 0.00 | 0.00 | 60 | 1019.0 |
| 20260830184547 | 73 | 288 | 2.0 | 8.0 | 0.00 | 0.00 | 0.00 | 58 | 1019.0 |
| 20260830184046 | 73 | 280 | 3.0 | 6.0 | 0.00 | 0.00 | 0.00 | 58 | 1018.9 |
| 20260830183546 | 73 | 269 | 2.0 | 8.0 | 0.00 | 0.00 | 0.00 | 56 | 1018.8 |
| 20260830183046 | 74 | 330 | 2.0 | 8.0 | 0.00 | 0.00 | 0.00 | 55 | 1018.7 |
| 20260830182546 | 74 | 290 | 4.0 | 12.0 | 0.00 | 0.00 | 0.00 | 55 | 1018.7 |
| 20260830182046 | 74 | 284 | 7.0 | 12.0 | 0.00 | 0.00 | 0.00 | 55 | 1018.6 |
| 20260830181546 | 73 | 278 | 5.0 | 10.0 | 0.00 | 0.00 | 0.00 | 56 | 1018.6 |
| 20260830181048 | 73 | 270 | 4.0 | 13.0 | 0.00 | 0.00 | 0.00 | 56 | 1018.5 |
| 20260830180545 | 73 | 269 | 6.0 | 13.0 | 0.00 | 0.00 | 0.00 | 57 | 1018.4 |
| 20260830180046 | 73 | 280 | 5.0 | 12.0 | 0.00 | 0.00 | 0.00 | 57 | 1018.3 |
| 20260830175545 | 74 | 285 | 3.0 | 12.0 | 0.00 | 0.00 | 0.00 | 56 | 1018.2 |
| 20260830175045 | 74 | 280 | 6.0 | 15.0 | 0.00 | 0.00 | 0.00 | 55 | 1018.1 |
| 20260830174550 | 74 | 290 | 7.0 | 15.0 | 0.00 | 0.00 | 0.00 | 56 | 1018.1 |
| 20260830174045 | 74 | 265 | 6.0 | 13.0 | 0.00 | 0.00 | 0.00 | 56 | 1018.1 |
| 20260830173544 | 74 | 277 | 7.0 | 13.0 | 0.00 | 0.00 | 0.00 | 56 | 1018.0 |
| 20260830173103 | 74 | 281 | 7.0 | 12.0 | 0.00 | 0.00 | 0.00 | 57 | 1017.9 |
| 20260830172543 | 74 | 304 | 7.0 | 12.0 | 0.00 | 0.00 | 0.00 | 56 | 1017.8 |
| 20260830172043 | 74 | 279 | 4.0 | 15.0 | 0.00 | 0.00 | 0.00 | 57 | 1017.9 |
| 20260830171543 | 74 | 288 | 7.0 | 15.0 | 0.00 | 0.00 | 0.00 | 57 | 1017.8 |
| 20260830171043 | 74 | 264 | 7.0 | 13.0 | 0.00 | 0.00 | 0.00 | 57 | 1017.8 |
| 20260830170544 | 74 | 280 | 7.0 | 13.0 | 0.00 | 0.00 | 0.00 | 56 | 1017.8 |
| 20260830170044 | 74 | 215 | 6.0 | 14.0 | 0.00 | 0.00 | 0.00 | 56 | 1017.8 |
| 20260830165543 | 74 | 296 | 7.0 | 14.0 | 0.00 | 0.00 | 0.00 | 56 | 1017.8 |
| 20260830165043 | 74 | 216 | 5.0 | 13.0 | 0.00 | 0.00 | 0.00 | 57 | 1017.7 |
| 20260830164543 | 74 | 278 | 6.0 | 13.0 | 0.00 | 0.00 | 0.00 | 56 | 1017.7 |
| 20260830164043 | 74 | 277 | 8.0 | 14.0 | 0.00 | 0.00 | 0.00 | 57 | 1017.6 |
| 20260830163542 | 74 | 255 | 8.0 | 14.0 | 0.00 | 0.00 | 0.00 | 56 | 1017.7 |
| 20260830163043 | 74 | 270 | 6.0 | 13.0 | 0.00 | 0.00 | 0.00 | 57 | 1017.6 |
| 20260830162542 | 75 | 294 | 6.0 | 13.0 | 0.00 | 0.00 | 0.00 | 56 | 1017.6 |
| 20260830162042 | 75 | 64 | 3.0 | 13.0 | 0.00 | 0.00 | 0.00 | 56 | 1017.5 |
| 20260830161541 | 75 | 304 | 4.0 | 11.0 | 0.00 | 0.00 | 0.00 | 57 | 1017.6 |
| 20260830161044 | 75 | 295 | 5.0 | 11.0 | 0.00 | 0.00 | 0.00 | 56 | 1017.5 |
| 20260830160544 | 75 | 297 | 3.0 | 9.0 | 0.00 | 0.00 | 0.00 | 56 | 1017.5 |
| 20260830160040 | 75 | 281 | 3.0 | 12.0 | 0.00 | 0.00 | 0.00 | 56 | 1017.5 |
| 20260830155540 | 75 | 250 | 5.0 | 12.0 | 0.00 | 0.00 | 0.00 | 56 | 1017.6 |
| 20260830155044 | 76 | 280 | 4.0 | 13.0 | 0.00 | 0.00 | 0.00 | 56 | 1017.6 |
| 20260830154540 | 76 | 291 | 5.0 | 13.0 | 0.00 | 0.00 | 0.00 | 56 | 1017.6 |